GFSMA_con_mlcape_231.txt.gz
CAPE
12 1 4 5 30 25 137 121 34 0 0 0 0 0 125 266 197 150 204 379 616 850 576 1044 1963 2159 1920 1975 1935 1991 1717 1654 1639 1496 1579 1870 1701 1447 1411 1372 1585 1749 1722
84 101 54 50 120 32 7 76 140 138 33 66 69 20 94 204 206 135 168 192 506 745 1095 889 1462 1972 1702 1512 1514 1678 2241 2346 2243 2091 1980 1914 1645 1610 1545 1586 1647 1662 1548
223 126 65 111 34 8 57 205 230 220 139 136 187 203 172 119 200 241 190 129 278 940 1081 1277 1334 1921 1818 1551 1483 1558 1684 2194 1931 1946 1869 1681 1415 1357 1561 1490 1453 1466 1378
445 132 129 83 8 1 6 15 70 169 141 148 148 120 218 141 185 279 273 219 259 447 947 1332 1341 1500 1636 1593 1546 1677 1916 1825 1861 1563 1590 1475 1493 1429 1384 1235 1300 1265 1135
296 140 98 76 59 0 19 10 99 116 46 40 24 76 182 202 162 260 206 200 118 25 15 144 780 1326 1501 1564 1619 1740 1905 1951 1666 1532 1538 1512 1253 1120 1201 1264 1080 1170 1152
356 221 79 5 84 238 55 95 152 72 31 0 1 72 179 251 115 187 163 165 84 87 117 167 339 499 1011 1363 1701 1769 1744 2025 1707 1659 1386 1357 1348 1237 1208 1267 1384 1244 1013
429 268 30 19 209 252 105 178 168 35 2 108 1 0 24 89 161 189 163 146 172 246 246 252 349 638 917 1055 1111 1220 1564 1348 1415 1687 1775 1450 1410 1405 1312 1365 1381 1054 906
446 355 188 289 395 499 263 295 150 136 56 10 47 5 43 57 53 152 206 158 167 191 191 228 300 332 466 781 624 707 481 784 901 1062 1477 1586 1558 1449 1349 1171 945 744 551
604 525 351 382 483 533 562 424 284 311 327 75 97 15 24 29 27 15 85 92 151 104 156 232 192 234 329 388 491 641 451 462 473 548 810 1402 1419 1241 1139 894 532 383 282
565 642 492 363 377 311 206 159 172 27 208 175 110 68 29 12 12 2 0 19 27 25 23 97 288 337 346 371 431 502 544 394 443 382 515 754 1092 879 968 540 251 201 139
541 508 523 500 363 344 351 433 233 382 279 263 125 67 70 46 22 21 21 0 1 16 25 33 15 104 421 459 430 430 504 430 414 617 760 485 610 657 873 607 234 220 160
715 551 570 456 375 336 320 226 389 356 544 535 237 125 133 86 69 35 42 11 35 3 8 37 15 26 74 166 348 490 529 542 609 671 994 920 638 507 380 552 516 394 332
527 583 541 436 408 548 392 626 767 542 701 665 442 346 345 188 76 71 33 1 18 1 0 40 21 19 25 221 325 506 565 612 634 620 443 545 717 772 536 216 253 351 642
261 429 493 501 497 557 536 417 511 657 679 635 708 464 446 520 293 115 45 10 29 49 73 106 4 0 24 55 56 72 202 388 478 414 365 562 480 773 762 480 202 232 306
156 332 331 339 419 498 434 473 536 614 796 850 830 557 492 589 334 278 57 35 45 67 39 66 17 25 34 2 66 73 132 85 259 515 634 651 552 612 681 639 231 157 326
235 236 106 340 219 210 481 565 524 680 721 719 822 552 616 361 507 377 186 68 79 63 34 68 128 76 7 0 6 9 3 219 872 536 601 599 636 630 436 419 178 85 146
271 114 491 479 447 474 523 615 441 536 810 872 735 482 79 317 397 321 299 318 475 264 211 190 134 79 11 0 0 0 5 249 639 446 580 507 387 439 415 207 165 113 91
230 330 385 520 634 597 650 584 447 621 439 502 572 496 324 495 413 529 728 725 592 393 389 223 268 232 97 30 5 0 25 153 372 521 427 460 253 398 274 234 203 131 116
249 252 537 615 592 543 582 388 532 510 614 800 586 366 358 275 246 424 604 545 462 416 410 493 423 258 279 186 255 252 353 539 419 491 409 340 239 283 392 295 216 170 170
855 625 419 419 539 413 284 89 48 524 704 837 571 360 501 802 719 556 784 637 516 550 428 346 466 413 248 295 268 237 250 313 378 453 527 515 400 500 532 416 277 157 145
1040 921 542 504 367 112 51 33 334 528 758 693 704 926 858 823 921 1095 986 870 638 603 583 561 505 486 554 559 480 329 386 389 274 302 423 466 351 329 387 267 283 303 145
1019 945 805 773 592 513 334 231 622 683 722 625 727 984 1025 1120 1106 1153 987 944 967 889 667 506 467 458 491 410 396 313 187 298 357 149 299 364 315 378 308 320 420 349 276
1176 1042 742 768 662 630 744 737 687 756 826 644 799 977 1174 1455 1265 1175 1081 895 680 487 394 168 0 0 0 0 0 0 0 0 12 69 178 293 245 341 351 363 408 437 344
1262 1233 1090 836 764 865 899 715 668 904 823 699 949 988 1033 1083 1107 1098 896 523 134 0 0 0 0 0 0 0 0 0 0 0 0 0 0 9 55 179 335 384 446 422 349
1177 1212 1165 962 884 855 831 777 686 904 851 815 1037 993 981 1053 791 693 523 206 0 0 0 0 0 0 0 0 0 0 0 0 0 0 0 0 0 15 23 191 297 336 397
929 951 790 478 627 533 451 284 157 536 670 833 948 931 835 1173 335 90 104 0 0 0 0 0 0 0 0 0 0 0 0 0 0 0 0 1 0 2 1 4 126 179 222

GFSMA_con_mlcape_234.txt.gz
CAPE
196 155 106 2 17 19 102 142 70 0 0 0 0 31 92 168 252 101 97 325 455 885 700 567 1067 2145 1945 1882 1870 1780 1788 1973 2110 1930 1805 1555 1689 1726 1691 1598 1385 1472 1632
169 38 21 30 12 65 42 109 115 92 46 0 0 0 0 10 212 246 108 156 613 768 1102 991 1153 1675 2267 1866 1845 1855 1945 2272 2268 2002 1648 1771 1688 1611 1709 1587 1457 1531 1426
177 108 112 41 87 132 88 53 63 164 122 58 22 94 140 100 121 155 216 203 202 449 982 1238 1221 1044 1636 1941 1711 1693 1743 1716 1684 1962 1710 1714 1623 1462 1398 1513 1651 1489 1393
287 179 179 98 70 0 0 66 127 131 132 72 49 90 153 168 118 154 247 265 277 286 640 1379 1457 1252 1324 1868 1803 1764 1803 1710 1643 1789 1693 1418 1455 1419 1481 1341 1281 1245 1199
360 308 226 100 42 37 0 1 3 42 41 42 44 33 57 123 120 148 212 265 204 255 271 357 1433 1457 1350 1417 1572 1760 1849 1798 1882 1939 1869 1741 1349 1381 1442 1258 1305 1208 1085
496 350 121 98 51 56 0 0 16 61 28 2 0 7 60 128 164 155 108 189 185 190 103 70 116 612 1152 1434 1464 1829 1923 1874 1772 1949 1532 1396 1255 1307 1244 1132 1145 1071 1168
563 302 130 84 10 79 162 46 65 110 7 15 0 0 0 23 131 173 81 141 168 213 192 196 211 299 390 421 780 1080 1284 1538 1877 1636 839 853 1169 1266 1149 1150 1074 1149 1215
453 362 198 68 75 229 137 61 119 91 52 25 42 0 15 37 63 100 142 116 181 206 273 354 322 317 360 462 542 709 817 719 681 1012 905 470 601 1233 1225 1259 1191 1121 933
334 424 285 210 257 337 271 225 185 117 166 124 48 1 1 11 19 14 62 121 149 148 212 242 258 324 325 409 484 504 611 422 516 495 428 394 437 867 1285 1258 1132 799 523
501 522 486 332 302 370 353 417 236 166 179 127 91 75 4 6 4 13 2 34 45 60 105 139 216 243 248 271 343 461 498 497 407 405 431 349 400 532 980 936 853 531 256
526 512 497 426 351 302 228 140 78 104 44 65 114 64 77 72 22 24 7 12 1 22 46 45 55 87 220 305 361 406 486 646 598 558 341 399 567 674 677 829 535 444 223
430 489 496 503 387 353 299 203 277 181 277 241 161 90 66 65 58 22 17 25 29 21 3 15 44 54 53 30 120 255 417 522 525 504 414 574 733 945 737 701 515 479 204
186 506 516 439 402 319 267 279 257 390 428 420 303 205 182 150 88 49 51 48 10 17 5 3 9 28 15 44 100 161 288 377 480 485 499 544 719 845 819 812 526 194 252
188 115 485 451 425 358 311 415 388 482 443 550 511 502 493 334 282 128 53 35 38 41 64 16 44 52 6 17 64 134 239 206 248 428 426 338 252 396 573 643 801 569 228
233 129 191 421 427 384 361 472 428 391 356 674 526 743 433 417 512 367 124 71 60 72 19 11 58 10 9 22 27 67 66 61 59 180 323 364 438 492 638 657 829 798 524
253 130 137 249 326 333 320 432 462 452 492 457 489 722 590 551 410 397 316 64 47 52 36 19 72 31 31 10 0 29 63 37 15 663 599 500 459 516 584 638 700 731 620
369 300 206 160 129 234 270 273 430 587 513 390 559 674 287 58 289 230 281 182 114 80 194 195 115 124 52 0 0 0 0 10 54 263 496 362 508 403 465 500 582 316 281
418 337 238 231 301 393 444 430 471 645 612 434 530 621 254 233 396 337 346 290 392 431 428 353 176 272 153 90 47 33 59 54 258 393 384 451 369 349 261 428 424 371 223
559 450 320 313 410 467 534 530 623 665 544 510 485 514 470 390 266 349 538 609 614 505 366 370 469 277 332 175 151 314 336 453 585 417 333 401 426 371 161 140 343 300 241
711 579 429 319 415 550 573 485 538 536 513 544 492 502 368 238 496 496 464 478 506 488 475 461 418 360 358 289 311 423 471 416 379 390 323 371 508 438 319 308 343 309 282
824 841 757 568 402 436 471 470 341 339 252 483 520 645 494 562 789 900 876 817 573 622 489 522 531 409 447 463 515 376 385 426 392 383 510 480 289 471 429 228 288 286 302
684 795 723 931 678 460 443 326 293 232 204 647 578 719 865 833 798 896 986 978 832 847 819 640 500 382 241 245 209 136 63 0 0 49 170 285 225 390 385 349 266 216 295
590 519 443 494 472 419 414 296 221 170 262 720 680 622 822 1179 1139 1116 975 807 735 660 657 645 77 0 0 0 0 0 0 0 0 0 0 0 0 0 226 335 210 193 216
68 310 156 176 326 144 223 299 264 325 555 672 725 635 818 1157 1373 1215 1036 848 438 104 0 0 0 0 0 0 0 0 0 0 0 0 0 0 0 0 0 29 88 135 145
1 0 0 0 0 0 37 233 120 391 569 676 656 602 676 922 1055 921 945 678 212 0 0 0 0 0 0 0 0 0 0 0 0 0 0 1 0 0 0 0 23 0 50
0 0 0 0 0 0 0 0 91 292 366 390 268 359 533 939 674 633 840 490 334 0 0 0 0 0 0 0 0 0 0 0 3 1 0 2 13 18 7 21 45 85 116

GFSMA_con_mlcape_237.txt.gz
CAPE
426 494 479 510 167 325 228 313 230 251 153 159 265 379 439 522 577 454 456 404 483 631 549 728 851 1320 2178 1983 1692 1765 1876 2210 2252 2087 1864 1788 1779 1806 1794 1763 1749 1610 1578
495 563 436 211 213 137 84 81 345 338 276 74 17 55 70 215 407 786 556 546 403 760 988 764 876 930 1774 1865 1859 2010 2003 1925 1869 1855 1856 1733 1619 1668 1748 1658 1564 1415 1466
735 656 537 446 309 199 80 71 200 454 527 586 207 136 265 523 474 742 820 683 598 694 1069 1159 1231 1017 1490 2180 2174 1906 1927 1893 1842 1997 1909 1778 1608 1650 1732 1639 1616 1761 1639
865 746 580 564 568 390 268 127 579 728 744 759 552 371 451 643 679 722 676 798 714 696 727 1015 1361 1403 1358 1342 1981 2031 1837 1847 1860 1825 1782 1793 1536 1457 1490 1506 1380 1320 1205
1035 946 838 940 724 481 251 135 374 285 453 418 431 480 576 604 525 443 518 920 934 725 809 874 1262 1535 1800 1582 1620 1960 1906 1816 1805 1874 1956 2024 1759 1418 1312 1328 1439 1332 1154
1183 1107 1035 882 640 447 396 266 229 460 525 458 121 142 376 507 557 518 413 705 726 819 695 675 385 579 1285 1539 1594 1728 1863 1818 1873 1900 1919 1959 1586 1443 1187 1054 1216 1142 1110
1166 1150 1097 757 661 537 798 609 501 660 731 387 237 110 101 184 492 510 439 484 500 758 874 568 528 478 443 511 866 1446 1633 1924 1895 1776 1725 1191 937 800 1082 1085 1108 1087 1058
1151 1249 1017 826 648 679 823 792 640 640 528 395 249 340 172 287 299 472 698 553 393 662 778 860 989 908 828 850 741 577 565 807 1101 740 935 955 614 632 835 1073 1169 1120 1033
1131 1197 1089 954 747 710 799 875 710 589 315 622 75 161 161 137 328 469 534 673 748 588 560 780 983 1162 1166 985 972 950 831 576 556 574 595 520 407 415 502 752 1055 1126 1085
1234 1149 1172 910 918 997 1073 611 1084 841 717 483 598 231 328 213 163 22 55 112 550 531 690 748 781 925 1036 999 937 880 867 893 813 666 468 435 480 333 452 714 810 851 892
1074 1318 1322 1121 974 1011 1046 829 898 613 810 595 626 551 413 575 442 353 68 169 209 198 350 498 482 590 786 996 955 990 711 585 642 683 742 706 594 433 524 651 829 647 569
997 1110 1273 1243 801 732 977 839 865 848 842 755 895 669 522 246 168 342 318 171 34 63 39 233 291 311 553 455 318 293 462 441 450 644 663 656 592 568 746 934 974 697 466
518 882 1016 1157 1131 1007 900 548 695 850 912 938 696 754 732 668 761 688 552 220 285 282 112 293 144 81 241 441 265 164 184 197 230 420 517 524 467 614 770 930 869 906 623
825 917 737 648 992 656 897 880 780 802 1112 1117 613 756 630 678 682 767 691 162 204 574 567 335 55 176 93 96 18 45 220 446 330 385 401 428 467 542 627 581 778 803 898
759 821 770 773 1001 737 918 699 436 765 549 509 548 724 925 1122 1175 978 877 459 455 310 411 278 490 236 137 108 218 303 380 506 79 54 82 213 320 347 334 344 522 612 754
1012 807 699 651 788 990 803 560 468 530 590 539 581 514 709 842 1069 1124 1007 467 440 401 412 376 583 782 594 613 437 56 85 126 66 16 2 575 503 435 412 466 510 583 677
804 943 773 637 661 833 823 758 568 641 821 899 937 411 888 858 677 923 528 816 659 481 503 624 1012 958 732 715 408 107 168 156 224 4 47 495 332 303 440 386 501 552 531
649 1064 1040 849 645 644 668 768 828 914 953 873 1025 592 865 902 597 848 944 678 606 719 786 1115 1131 980 875 1102 869 590 414 329 378 511 260 162 217 296 316 249 259 354 469
990 1091 1110 788 628 716 785 942 963 1076 1142 1054 1163 788 707 969 837 984 868 947 1032 1138 1192 997 1051 1237 1162 1218 1097 1128 956 1126 1243 912 315 218 277 294 299 263 182 204 250
1124 1164 1155 958 755 759 992 892 973 1049 1062 1324 1282 1126 887 372 888 961 945 567 896 907 1154 1166 1121 1083 1030 1265 1097 1125 1086 1276 1027 922 709 573 396 357 244 172 139 92 191
1039 797 778 694 736 686 488 659 680 753 935 1113 1161 1247 826 1078 762 687 907 855 957 849 765 1197 972 980 996 890 733 753 650 507 361 564 159 212 844 821 652 294 282 146 177
332 206 774 519 533 743 429 272 389 748 831 845 655 849 1120 800 437 512 694 807 1121 911 1258 1160 997 873 1093 585 44 43 0 0 0 64 21 0 0 0 332 820 778 265 38
479 492 359 191 17 266 246 67 83 268 616 570 362 480 1143 702 974 1399 820 708 777 719 912 1521 1368 1102 149 12 0 0 0 0 0 0 0 0 0 0 0 0 229 97 29
97 90 108 126 43 37 57 50 33 150 176 181 140 487 541 708 912 1269 1688 1505 1484 1316 911 784 794 76 0 0 0 0 0 0 0 0 1 0 0 0 0 0 0 0 0
0 0 10 10 21 38 17 13 18 59 119 156 288 471 575 643 538 705 1385 1529 1552 1080 0 0 0 0 0 0 0 0 0 0 0 0 8 9 0 8 1 4 0 0 0
3 0 0 0 0 0 0 0 0 79 141 204 499 742 341 519 395 497 1160 1380 1390 1055 169 0 0 0 0 0 0 0 4 3 4 1 15 12 16 14 7 28 106 127 156

GFSMA_con_mlcape_240.txt.gz
CAPE
336 527 424 550 529 614 160 498 384 273 219 292 236 267 311 307 464 477 493 402 366 545 480 854 981 1260 1974 2260 2134 2047 2254 2215 2075 2003 2040 2082 1888 1737 1835 1756 1686 1613 1798
348 531 299 427 633 434 603 101 863 537 423 177 113 184 379 505 760 619 647 785 460 605 767 731 805 1052 1333 1954 2285 1771 1796 1850 1871 2008 2022 1643 1729 1652 1793 1828 1786 1662 1385
844 1070 899 706 753 841 201 231 385 795 730 444 187 60 221 307 545 846 939 699 751 546 769 1219 922 990 1042 1351 2118 1844 1978 1998 1963 1992 1930 1828 1828 1600 1649 1768 1694 1788 1787
1349 1261 905 856 1161 662 1032 728 294 925 990 746 361 210 258 388 632 669 910 913 745 863 812 1000 1372 1311 1080 1246 1998 2247 2054 1702 1659 1564 1545 1477 1676 1788 1504 1557 1535 1427 1437
1338 1459 1011 1027 1475 946 844 654 554 844 844 1052 701 315 283 471 498 415 465 765 835 805 741 933 874 1273 1647 1628 1674 1788 2097 2034 1742 1671 1609 1583 1530 1704 1532 1362 1321 1313 1282
1645 1579 1105 1168 1476 825 865 821 764 680 632 908 702 375 494 494 406 260 266 452 499 728 728 887 1297 997 1122 1680 1834 1782 1822 1870 1739 1557 1594 1618 1745 1559 1479 1382 1213 1221 1133
1483 1715 1445 1229 1112 902 1085 1303 1181 1159 948 891 573 467 487 584 482 431 334 283 366 532 557 868 889 621 1044 842 1208 1715 1859 2019 2031 1903 1816 1825 1757 1498 1229 1125 1043 1031 1181
923 1280 1409 899 1089 803 1390 1469 1378 743 1021 697 615 523 677 505 344 386 330 376 316 360 393 634 780 919 957 1062 1044 614 965 1537 1580 1505 1820 1743 1269 1102 794 884 1024 1044 1055
1120 1482 1299 1026 1136 1234 966 1164 1247 1284 742 798 1012 160 192 121 289 665 684 709 532 354 270 371 483 965 1348 1085 1056 1060 713 338 475 811 942 733 584 594 530 666 747 948 992
861 1011 1000 952 1247 952 854 964 732 1280 1335 749 880 639 322 729 564 299 144 271 836 1017 794 422 340 776 1275 1224 983 984 1355 1011 788 744 744 598 587 515 433 476 586 719 878
1147 1124 1063 1016 985 1281 1065 866 1079 1482 881 1042 693 758 877 668 683 729 658 166 689 135 432 741 605 516 830 1191 1136 1191 1028 894 996 1011 919 854 745 526 531 525 571 595 721
763 1193 1470 1646 1132 979 940 1084 925 1176 965 937 1070 1098 731 486 671 389 616 690 214 26 107 207 434 709 708 722 1005 917 815 981 773 665 682 771 904 927 861 694 804 887 867
571 799 1228 1207 1258 966 1036 873 867 760 1149 900 1152 837 603 709 955 315 756 663 510 757 592 291 508 566 683 664 822 710 492 208 174 181 261 592 714 752 922 671 848 973 989
908 924 1014 1158 1152 885 1046 820 995 574 761 1075 1303 1243 766 712 899 674 726 891 347 519 864 918 662 98 632 651 662 119 112 56 169 274 154 281 487 565 594 587 768 898 706
872 763 975 1356 1357 1210 974 1146 757 786 830 1082 782 823 986 918 953 1160 699 1139 643 606 556 1164 574 1051 719 746 785 716 694 735 431 335 279 225 270 372 439 501 530 680 850
1026 1043 1187 1532 1602 1467 1276 1333 784 939 901 851 641 873 949 844 839 844 1045 1037 859 705 524 610 577 1075 1251 1013 980 1010 633 421 297 162 12 0 9 381 364 340 301 274 296
1310 1615 1551 1674 1596 1409 1389 1401 881 874 902 982 916 868 855 1097 1087 779 973 1087 968 894 556 456 785 1136 1738 1759 1262 1085 707 715 447 152 0 3 14 464 440 459 458 445 473
1230 1536 1943 2062 1776 1528 1488 1353 1291 934 1014 1057 1102 1076 1055 885 1113 1220 978 1092 967 958 795 839 896 1064 1121 1434 1766 1643 1234 640 589 237 84 8 57 252 325 267 321 239 379
1901 1988 1970 2127 1573 1436 1347 1438 1361 1252 943 1224 1208 1109 1214 988 1140 1146 1179 1011 1028 1129 1234 1038 884 855 1076 1169 1331 1626 1466 914 1214 835 669 413 209 219 237 256 246 195 172
1939 2284 2078 1895 1372 1387 1383 954 990 1131 900 1095 1328 1312 1145 1188 1254 1540 1131 773 443 698 1003 1127 804 799 715 797 1287 703 706 1340 858 608 574 393 427 365 270 209 198 146 52
2077 1365 1510 1376 1313 1151 1101 993 874 843 946 1011 1032 1157 1217 1362 1287 1077 811 701 688 1093 666 1015 685 548 242 194 230 7 57 2 4 86 12 29 112 619 874 148 247 130 37
1551 1394 791 187 116 794 872 408 496 783 783 816 961 1104 1377 1054 1068 753 565 415 1228 1097 1203 615 596 316 641 401 1 0 0 0 0 0 0 0 0 0 0 0 358 632 178
1757 1127 750 493 391 629 362 209 134 400 737 867 736 1200 1136 859 1106 1241 648 283 539 618 725 1383 1323 1206 884 406 57 0 0 0 0 0 0 0 0 0 0 0 0 190 198
1535 1691 1293 1041 787 568 38 4 4 58 520 852 1151 1238 1224 915 1043 1293 872 1231 1295 1464 1325 1073 1125 1372 1017 109 0 0 0 0 0 0 6 0 0 1 6 7 0 0 0
692 609 606 620 837 666 53 0 0 62 181 657 918 945 569 668 1056 305 532 558 1276 1313 373 351 149 2 0 0 0 0 0 0 0 0 14 5 1 7 10 21 21 8 0
274 284 275 236 123 0 26 0 0 0 79 295 502 810 230 284 293 280 409 722 1031 1323 1136 236 9 0 0 0 0 0 0 0 0 0 25 11 22 11 21 62 12 24 39

GFSMA_con_mlcape_246.txt.gz
CAPE
489 408 517 618 822 271 115 398 308 169 193 274 102 400 462 319 320 353 491 369 206 126 180 384 1230 1523 2013 2209 2189 2220 2207 2556 2391 2291 2128 2078 2094 1943 1920 1825 1760 1597 1703
321 453 279 127 189 519 385 105 92 525 289 303 261 329 297 288 203 329 359 498 258 207 228 333 786 1325 1750 1938 1967 2100 2268 1843 1948 1891 1884 1988 1913 1885 1846 1892 1792 1729 1614
800 514 475 16 194 530 551 598 51 445 543 836 371 179 252 292 194 402 720 798 539 425 247 453 708 1112 1453 1561 2038 2080 2116 1939 2033 2105 2279 2160 2126 1737 1515 1598 1628 1747 1686
1081 809 613 42 278 286 155 207 598 161 340 421 664 378 243 100 389 607 632 828 653 529 539 566 517 783 1051 1086 1304 1646 2193 2379 1694 1432 1366 1498 1976 1963 1564 1471 1543 1442 1553
1008 879 857 651 159 87 564 362 318 650 230 252 497 742 410 197 165 528 607 832 927 833 825 677 394 463 653 837 993 1169 1368 2298 1995 1232 1600 1928 1622 1518 1478 1431 1380 1471 1256
666 1052 892 911 748 915 501 445 419 482 286 129 615 772 681 404 634 289 331 675 903 707 955 1025 765 373 332 611 787 969 1059 1100 2140 1875 1884 1914 1596 1506 1591 1650 1601 1508 1398
661 1008 648 1031 1032 930 675 447 847 992 932 568 365 429 390 447 542 293 316 599 437 613 322 746 1045 589 769 635 985 1165 1193 1276 1629 2189 2114 1937 1644 1512 1489 1638 1488 1299 1256
1128 1030 721 1074 1120 794 956 1419 1052 498 309 470 563 231 38 35 145 648 499 381 359 229 607 390 1239 769 1246 1367 828 808 1053 1470 1677 1893 1884 1836 1723 1513 1375 1420 1207 1186 1145
1169 1310 908 951 1080 878 819 696 1298 1019 764 640 714 431 163 33 75 249 278 296 368 331 393 401 765 732 1299 1292 1141 986 827 1049 1376 1768 1972 2037 1942 1559 1258 1040 889 953 983
292 835 1038 1070 496 873 628 858 826 1086 809 268 447 1020 839 80 12 135 59 0 405 350 177 998 813 521 829 761 1195 1336 1405 938 950 870 1287 1820 1597 1266 1000 724 719 754 660
842 347 1156 940 943 1250 427 444 963 873 1015 544 868 589 918 630 767 411 85 198 389 380 316 815 910 909 1195 1104 805 611 1232 1252 882 693 421 638 846 791 714 722 606 554 433
1552 1252 1397 1207 1323 1551 865 831 919 1127 1014 1084 1042 808 630 420 60 301 328 272 334 499 411 808 394 489 552 1084 883 798 940 982 832 807 696 540 415 442 596 749 715 584 522
1060 1193 1207 1368 1262 1627 1415 1644 1168 717 1201 660 532 798 779 890 407 568 377 211 233 226 289 356 499 697 653 633 1030 927 774 865 887 890 869 851 900 946 932 919 1054 980 791
69 46 1055 1112 985 1430 1412 1337 1468 1469 677 421 669 1220 1127 673 774 563 630 329 14 124 272 38 175 449 303 83 985 722 915 787 744 742 840 883 849 759 652 724 885 1101 1070
352 696 674 908 1375 1432 1553 1682 1539 1657 912 873 919 823 876 590 764 808 899 771 665 387 103 254 11 97 600 758 967 873 827 775 537 387 250 149 97 123 162 265 515 699 808
690 976 1309 1370 1125 1373 1564 1447 1415 1599 1577 1353 887 592 867 850 832 1013 972 810 610 517 176 526 166 70 777 1161 1081 722 970 1118 662 352 166 57 70 191 173 122 311 446 472
611 927 1367 1587 1454 1402 1388 1471 1374 1320 1260 1231 825 932 669 530 703 641 1155 1064 792 542 474 738 468 964 1020 1028 1199 1032 1412 1246 905 447 234 65 96 77 72 120 190 244 322
529 1184 1381 1439 1411 1157 1251 1600 1198 1196 882 983 827 579 514 694 763 961 595 595 274 895 683 528 617 789 806 1367 1423 1337 1448 1541 1414 1221 471 173 10 1 1 1 12 140 293
912 1807 1430 1409 1476 1145 912 1103 1443 1070 1187 1378 1255 919 505 429 399 894 1095 891 902 786 717 657 741 706 807 1274 1263 1691 1641 1344 1339 1036 350 164 0 0 0 0 0 0 145
1055 720 1352 1598 1257 274 1007 1162 1346 1484 1220 712 933 584 677 654 445 1023 816 962 400 578 493 629 596 432 471 1065 1199 911 1081 1180 1086 1365 434 234 124 36 0 0 0 0 24
1801 1872 1696 1505 963 562 210 582 1402 962 919 1188 520 741 1113 1047 1427 1209 1142 1420 673 661 231 122 157 7 231 675 774 803 550 25 929 1300 0 36 79 252 227 47 29 28 14
1820 1686 1700 1560 1354 1013 901 790 644 503 307 446 294 327 303 291 491 741 998 1037 813 506 325 160 109 104 78 514 969 625 108 0 0 0 0 0 0 0 0 0 0 88 145
1065 1070 1178 1214 1092 1066 996 745 782 759 694 684 769 730 741 661 436 525 481 497 553 734 705 432 387 748 910 442 846 556 114 14 0 0 0 0 0 0 0 0 0 0 0
543 689 621 577 661 827 633 486 372 557 563 754 972 766 722 534 721 636 423 562 516 688 502 512 953 859 1293 1215 1074 575 106 0 0 0 0 0 0 0 0 0 11 3 5
295 254 209 421 552 666 415 257 111 114 64 393 245 238 483 398 516 413 384 406 479 487 253 240 269 342 298 348 883 233 28 0 0 0 37 0 1 0 0 24 221 5 0
355 246 77 72 138 145 229 280 127 208 136 26 20 288 166 70 113 488 377 264 207 310 338 109 47 63 22 39 0 56 57 0 0 0 44 0 0 0 0 33 75 16 0